Weather History for K2G4 - January, 2013

Change the Weather History Date:

Monday, January 21, 2013

  Actual Average (KMGW) Record (KMGW)
Temperature  
Mean Temperature 18 °F 31 °F  
Max Temperature 28 °F 39 °F 73 °F (1959)
Min Temperature 8 °F 24 °F -18 °F (1985)
Degree Days  
Heating Degree Days 47 34  
Month to date heating degree days 711  
Since 1 July heating degree days 2695  
Cooling Degree Days 0 0  
Month to date cooling degree days 0  
Year to date cooling degree days 0  
Moisture  
Dew Point 12 °F    
Average Humidity 75    
Maximum Humidity 100    
Minimum Humidity 47    
Precipitation  
Precipitation 0.00 in 0.09 in - ()
Month to date precipitation 1.90  
Year to date precipitation 1.90  
Sea Level Pressure  
Sea Level Pressure 29.85 in    
Wind  
Wind Speed 9 mph (West)    
Max Wind Speed 17 mph    
Max Gust Speed 26 mph    
Visibility 7 miles    
Events Fog    
T = Trace of Precipitation, MM = Missing Value Source: NWS Daily Summary

Daily Weather History Graph

Daily Weather History Graph

Search for Another Location

Airport or City:

Trip Planner

Search our weather history database for the weather conditions in past years. The results will help you decide how hot, cold, wet, or windy it might be!

Date:

Astronomy

Jan. 21, 2013 Rise Set
Actual Time 7:33 AM EST 5:24 PM EST
Civil Twilight 7:04 AM EST 5:53 PM EST
Nautical Twilight 6:31 AM EST 6:26 PM EST
Astronomical Twilight 5:59 AM EST 6:58 PM EST
Moon 1:03 PM EST (1/21) 2:59 AM EST (1/21)
Length of Visible Light 10h 49m
Length of Day
9h 51m
Waxing Gibbous, 75% of the Moon is Illuminated
Jan 21
Waxing Gibbous
Jan 26
Full
Feb 3
Last Quarter
Feb 10
New
Feb 17
First Quarter

Hourly Weather History & Observations

Time (EST) Temp. Windchill Dew Point Humidity Pressure Visibility Wind Dir Wind Speed Gust Speed Precip Events Conditions
12:10 AM 19.4 °F 9.5 °F 12.2 °F 74% 29.96 in 10.0 mi WNW 8.1 mph - N/A   Overcast
12:35 AM 19.4 °F 9.5 °F 12.2 °F 74% 29.95 in 10.0 mi WNW 8.1 mph - N/A   Overcast
12:55 AM 19.4 °F 11.5 °F 12.2 °F 74% 29.95 in 10.0 mi WNW 5.8 mph - N/A   Overcast
1:15 AM 19.4 °F 9.5 °F 12.2 °F 74% 29.94 in 10.0 mi West 8.1 mph - N/A   Overcast
2:00 AM 19.4 °F 10.4 °F 12.2 °F 74% 29.95 in 10.0 mi West 6.9 mph - N/A   Overcast
2:20 AM 19.4 °F 9.5 °F 10.4 °F 68% 29.95 in 10.0 mi West 8.1 mph - N/A   Overcast
2:40 AM 19.4 °F 10.4 °F 12.2 °F 74% 29.94 in 10.0 mi WNW 6.9 mph - N/A   Overcast
3:05 AM 19.4 °F 12.8 °F 12.2 °F 74% 29.94 in 10.0 mi West 4.6 mph - N/A   Overcast
3:25 AM 19.4 °F - 12.2 °F 74% 29.92 in 10.0 mi Calm Calm - N/A   Overcast
4:05 AM 19.4 °F 14.3 °F 12.2 °F 74% 29.92 in 10.0 mi West 3.5 mph - N/A   Overcast
4:30 AM 19.4 °F 10.4 °F 12.2 °F 74% 29.91 in 10.0 mi WSW 6.9 mph - N/A   Overcast
4:50 AM 19.4 °F 10.4 °F 12.2 °F 74% 29.91 in 10.0 mi West 6.9 mph - N/A   Overcast
5:10 AM 19.4 °F 9.5 °F 12.2 °F 74% 29.90 in 10.0 mi WSW 8.1 mph - N/A   Overcast
5:35 AM 19.4 °F 14.3 °F 12.2 °F 74% 29.90 in 10.0 mi WSW 3.5 mph - N/A   Overcast
5:55 AM 19.4 °F 10.4 °F 10.4 °F 68% 29.90 in 10.0 mi WSW 6.9 mph - N/A   Overcast
6:15 AM 19.4 °F 11.5 °F 10.4 °F 68% 29.90 in 10.0 mi WSW 5.8 mph - N/A   Overcast
6:35 AM 19.4 °F 12.8 °F 10.4 °F 68% 29.90 in 10.0 mi WSW 4.6 mph - N/A   Overcast
7:00 AM 19.4 °F 9.5 °F 10.4 °F 68% 29.90 in 10.0 mi SW 8.1 mph - N/A   Overcast
7:20 AM 21.2 °F 12.6 °F 10.4 °F 63% 29.90 in 10.0 mi WSW 6.9 mph - N/A   Overcast
7:40 AM 21.2 °F 11.7 °F 10.4 °F 63% 29.90 in 10.0 mi WSW 8.1 mph - N/A   Overcast
8:00 AM 21.2 °F 13.6 °F 10.4 °F 63% 29.89 in 10.0 mi WSW 5.8 mph - N/A   Overcast
8:25 AM 21.2 °F 10.9 °F 10.4 °F 63% 29.89 in 10.0 mi WSW 9.2 mph - N/A   Overcast
8:45 AM 21.2 °F 10.9 °F 10.4 °F 63% 29.89 in 7.0 mi WSW 9.2 mph - N/A   Overcast
9:05 AM 21.2 °F 14.9 °F 10.4 °F 63% 29.89 in 10.0 mi SW 4.6 mph - N/A   Overcast
9:50 AM 21.2 °F 9.5 °F 12.2 °F 68% 29.87 in 7.0 mi SW 11.5 mph 17.3 mph N/A   Overcast
10:10 AM 21.2 °F 8.9 °F 12.2 °F 68% 29.87 in 10.0 mi SSW 12.7 mph 17.3 mph N/A   Overcast
10:30 AM 23.0 °F 12.4 °F 10.4 °F 59% 29.86 in 10.0 mi SW 10.4 mph 19.6 mph N/A   Overcast
10:50 AM 23.0 °F 13.9 °F 10.4 °F 59% 29.86 in 10.0 mi SW 8.1 mph 16.1 mph N/A   Overcast
11:15 AM 24.8 °F 13.4 °F 10.4 °F 54% 29.84 in 10.0 mi SW 12.7 mph 19.6 mph N/A   Overcast
11:35 AM 24.8 °F 12.9 °F 10.4 °F 54% 29.82 in 10.0 mi SW 13.8 mph 19.6 mph N/A   Overcast
11:55 AM 26.6 °F 15.7 °F 8.6 °F 47% 29.80 in 10.0 mi WSW 12.7 mph 24.2 mph N/A   Overcast
12:15 PM 26.6 °F 15.2 °F 8.6 °F 47% 29.79 in 10.0 mi WSW 13.8 mph 18.4 mph N/A   Overcast
1:00 PM 28.4 °F 17.5 °F 10.4 °F 47% 29.75 in 10.0 mi WSW 13.8 mph 24.2 mph N/A   Mostly Cloudy
1:20 PM 28.4 °F 17.0 °F 10.4 °F 47% 29.74 in 10.0 mi WSW 15.0 mph 24.2 mph N/A   Scattered Clouds
1:40 PM 28.4 °F 18.0 °F 10.4 °F 47% 29.74 in 10.0 mi West 12.7 mph 26.5 mph N/A   Mostly Cloudy
2:05 PM 26.6 °F 14.3 °F 10.4 °F 51% 29.74 in 10.0 mi West 16.1 mph 25.3 mph N/A   Overcast
2:25 PM 24.8 °F 11.5 °F 12.2 °F 59% 29.75 in 10.0 mi West 17.3 mph 26.5 mph N/A   Overcast
2:45 PM 23.0 °F 10.6 °F 12.2 °F 63% 29.75 in 10.0 mi West 13.8 mph 21.9 mph N/A   Overcast
3:05 PM 23.0 °F 10.6 °F 15.8 °F 74% 29.76 in 2.5 mi West 13.8 mph 23.0 mph N/A   Haze
3:30 PM 21.2 °F 10.9 °F 19.4 °F 93% 29.77 in 1.0 mi WNW 9.2 mph 26.5 mph N/A   Overcast
3:50 PM 21.2 °F 10.1 °F 21.2 °F 100% 29.77 in 0.8 mi West 10.4 mph 19.6 mph N/A   Overcast
4:10 PM 19.4 °F 6.6 °F 19.4 °F 100% 29.78 in 0.5 mi West 12.7 mph 24.2 mph N/A Fog Light Freezing Fog
4:35 PM 19.4 °F 8.6 °F 19.4 °F 100% 29.78 in 0.5 mi WNW 9.2 mph 20.7 mph N/A Fog Light Freezing Fog
4:55 PM 19.4 °F 8.6 °F 19.4 °F 100% 29.79 in 1.2 mi West 9.2 mph 25.3 mph N/A   Overcast
5:15 PM 19.4 °F 8.6 °F 15.8 °F 86% 29.79 in 7.0 mi West 9.2 mph 25.3 mph N/A   Overcast
5:35 PM 19.4 °F 6.6 °F 14.0 °F 80% 29.80 in 10.0 mi West 12.7 mph 24.2 mph N/A   Overcast
6:00 PM 17.6 °F 6.4 °F 14.0 °F 86% 29.80 in 10.0 mi WNW 9.2 mph 19.6 mph N/A   Overcast
6:20 PM 17.6 °F 5.7 °F 15.8 °F 93% 29.81 in 3.0 mi West 10.4 mph 17.3 mph N/A   Overcast
6:40 PM 17.6 °F 3.7 °F 14.0 °F 86% 29.81 in 2.5 mi West 13.8 mph 23.0 mph N/A   Overcast
7:00 PM 17.6 °F 2.7 °F 14.0 °F 86% 29.80 in 7.0 mi West 16.1 mph 23.0 mph N/A   Overcast
7:25 PM 17.6 °F 4.3 °F 15.8 °F 93% 29.81 in 0.5 mi West 12.7 mph 20.7 mph N/A Fog Light Freezing Fog
7:45 PM 15.8 °F 3.4 °F 15.8 °F 100% 29.80 in 2.0 mi WNW 10.4 mph 19.6 mph N/A   Mist
8:05 PM 14.0 °F -0.8 °F 14.0 °F 100% 29.80 in 1.5 mi West 13.8 mph 25.3 mph N/A   Mostly Cloudy
8:25 PM 14.0 °F -0.8 °F 14.0 °F 100% 29.80 in 0.8 mi West 13.8 mph 25.3 mph N/A   Overcast
8:50 PM 14.0 °F -1.4 °F 12.2 °F 93% 29.80 in 0.8 mi WNW 15.0 mph 26.5 mph N/A   Overcast
9:10 PM 14.0 °F 0.5 °F 14.0 °F 100% 29.81 in 1.0 mi WNW 11.5 mph 24.2 mph N/A   Overcast
9:30 PM 12.2 °F -1.0 °F 12.2 °F 100% 29.81 in 1.8 mi West 10.4 mph 20.7 mph N/A   Overcast
9:50 PM 12.2 °F -2.5 °F 10.4 °F 92% 29.82 in 0.8 mi West 12.7 mph 25.3 mph N/A   Overcast
10:15 PM 10.4 °F -5.4 °F 8.6 °F 92% 29.83 in 1.0 mi WNW 13.8 mph 26.5 mph N/A   Overcast
10:35 PM 10.4 °F -4.8 °F 3.2 °F 73% 29.83 in 5.0 mi West 12.7 mph 21.9 mph N/A   Haze
10:55 PM 8.6 °F -5.5 °F 1.4 °F 73% 29.84 in 10.0 mi West 10.4 mph 20.7 mph N/A   Mostly Cloudy
11:15 PM 8.6 °F -7.0 °F 1.4 °F 73% 29.83 in 10.0 mi West 12.7 mph 21.9 mph N/A   Overcast
11:40 PM 8.6 °F -5.5 °F 1.4 °F 73% 29.83 in 10.0 mi West 10.4 mph 20.7 mph N/A   Overcast